Hourly Data Report for September 10, 2010

PETERBOROUGH AWOS
ONTARIO

44°14'00.000" N
78°22'00.000" W
191.40 m
6166420

Download Data

Hourly Data (September 2010)
Hourly Data Report for September 10, 2010
TIME
LST
Temp Definition
°C
Dew Point Definition
°C
Rel Hum Definition
%
Precip. Amount Definition
mm

Wind Dir Definition
10's deg

Wind Spd Definition
km/h
Visibility Definition
km
Stn Press Definition
kPa
Hmdx Definition


Wind Chill Definition


Weather Definition


00:00 13.4 11.4 88   LegendMM LegendMM 15.0 99.09      
01:00 13.4 11.4 88   LegendMM LegendMM 15.0 99.10      
02:00 13.5 11.3 87   LegendMM LegendMM 15.0 99.12      
03:00 13.5 11.3 87   LegendMM LegendMM 15.0 99.13      
04:00 13.5 11.3 87   LegendMM LegendMM 15.0 99.15      
05:00 13.4 11.3 87   LegendMM LegendMM 15.0 99.24      
06:00 13.2 11.3 88   LegendMM LegendMM 15.0 99.29      
07:00 13.7 11.2 85   LegendMM LegendMM 15.0 99.35      
08:00 14.6 10.8 78   LegendMM LegendMM 15.0 99.37      
09:00 15.6 10.7 73   LegendMM LegendMM 15.0 99.40      
10:00 16.9 10.7 67   LegendMM LegendMM 15.0 99.39      
11:00 19.1 11.1 60   LegendMM LegendMM 15.0 99.38      
12:00 19.3 10.4 56   LegendMM LegendMM 15.0 99.36      
13:00 19.8 8.8 49   LegendMM LegendMM 15.0 99.33      
14:00 20.2 8.5 47   LegendMM LegendMM 15.0 99.30      
15:00 19.8 8.6 48   LegendMM LegendMM 15.0 99.30      
16:00 19.9 8.6 48   LegendMM LegendMM 15.0 99.31      
17:00 19.7 9.1 50   LegendMM LegendMM 15.0 99.33      
18:00 18.9 8.4 50   LegendMM LegendMM 15.0 99.36      
19:00 13.1 10.2 83   LegendMM LegendMM 15.0 99.38      
20:00 11.1 9.9 92   LegendMM LegendMM 15.0 99.43      
21:00 9.5 9.2 98   LegendMM LegendMM 15.0 99.47      
22:00 8.9 8.6 98   LegendMM LegendMM 15.0 99.51      
23:00 8.0 7.8 99   LegendMM LegendMM 15.0 99.52      

Notes on Data Quality.

Legend

  • E = Estimated
  • M = Missing
  • NA = Not Available*
  • [empty] = Indicates an unobserved value
Date modified: